SCP
0 0 0 0 0 0 0 0 0 0 0 0 0 0 0 0 0 0 0 0 0 0 0 0 0 0 -0 0 0 0 0 0 0 -0 0 0 0 0 0 0 0 0 0 0 0 0 0 0 0 0 0 0 0 -0
0 0 0 0 0 0 0 0 0 0 0 0 0 0 0 0 0 0 0 0 0 0 0 0 -0 -0 -0 -0 0 0 0 0 -0 -0 -0 0 0 0 0 0 0 0 0 0 0 0 0 -0 -0 -0 -0 -0 0 0
0 0 0 0 0 0 0 0 0 0 0 0 0 0 0 0 0 0 0 0 0 0 0 0 0 0 0 -0 -0 0 0 0 0 0 0 0 0 0 -0 0 0 0 0 0 0 0 0 -0 -0 -0 -0 -0 0 -0
0 0 0 0 0 0 0 0 0 0 0 0 0 0 0 0 0 0 0 0 0 0 0 0 0 0 -0 -0 0 0 0 -0 -0 -0 0 0 0 0 0 0 0 0 0 0 0 0 0 0 -0 -0 -0 -0 -0 0
0 0 0 0 0 0 0 0 0 0 0 0 0 0 0 0 0 0 0 0 0 0 0 0 -0 0 -0 -0 -0 0 -0 0 -0 -0 0 0 0 0 0 0 0 0 0 0 0 0 0 0 0 -0 -0 0 -0 -0
0 0 0 0 0 0 0 0 0 0 0 0 0 0 0 0 0 0 0 0 0 0 0 0 0 -0 -0 -0 -0 -0 -0 -0 0 0 -0 0 0 0 0 0 0 0 0 0 0 0 0 0 0 0 0 0 -0 0
0 0 0 0 0 0 0 0 0 0 0 0 0 -0 0 0 0 0 0 0 0 0 0 0 0 -0 0 0 0 -0 -0 -0 -0 -0 0 0 0 0 0 0 0 0 -0 0 0 0 0 0 0 0 0 0 0 0
0 0 0 0 0 0 0 0 0 0 0 0 -0 -0 -0 0 0 0 0 0 0 0 0 0 0 -0 -0 -0 -0 -0 -0 -0 -0 0 0 0 0 0 0 0 0 0 0 0 0 0 0 0 0 0 0 0 -0 -0
0 0 0 0 0 0 0 0 0 0 0 0 -0 -0 0 0 0 0 0 0 0 0 0 0 0 -0 -0 -0 -0 -0 -0 -0 0 0 0 0 0 0 0 0 0 0 0 0 0 0 0 0 0 0 0 -0 0 0
0 0 0 0 0 0 0 0 0 0 -0 -0 0 0 0 0 0 0 0 0 0 0 0 0 0 -0 -0 -0 -0 0 0 -0 0 0 0 0 0 0 0 0 0 0 0 0 0 0 0 0 0 0 0 0 0 0
0 0 0 0 0 0 0 0 0 0 0 0 0 0 0 -0 0 0 0 0 0 0 0 0 0 -0 -0 -0 0 -0 0 0 -0 0 0 0 0 0 0 0 0 0 0 0 0 0 0 0 0 0 0 0 0 0
0 0 0 0 0 0 0 0 0 0 0 0 0 0 0 0 0 0 0 0 0 0 0 0 -0 -0 -0 -0 0 0 0 0 0 0 0 0 0 0 0 0 -0 0 0 0 0 0 0 0 0 0 0 0 0 0
0 0 0 0 0 0 0 0 0 0 0 0 0 0 0 0 0 0 0 0 0 0 0 -0 -0 -0 -0 0 -0 0 0 0 0 0 0 0 0 0 0 0 0 0 0 0 0 0 0 0 0 0 0 0 0 0
0 0 0 0 0 0 0 0 0 0 0 0 0 0 0 0 0 0 0 0 0 0 0 -0 -0 -0 -0 0 -0 -0 0 0 0 0 0 0 0 0 0 -0 0 0 0 0 0 0 0 0 0 0 0 0 0 0
0 0 0 0 0 0 0 0 0 0 0 0 0 0 0 0 0 0 0 0 0 0 0 0 0 -0 -0 -0 -0 -0 0 0 0 0 0 0 0 -0 -0 -0 -0 -0 -0 -0 -0 -0 -0 0 0 0 0 0 0 0
0 0 0 0 0 0 0 0 0 0 0 0 0 0 0 -0 -0 0 0 0 0 0 0 -0 -0 0 0 0 -0 0 0 0 0 0 0 0 0 0 -0 -0 -0 -0 -0 0 0 0 -0 -0 0 0 0 0 0 -0
0 0 0 0 0 0 0 0 0 0 0 0 0 0 -0 0 0 0 0 0 0 0 0 0 0 0 0 0 -0 -0 0 0 0 0 0 0 0 0 0 0 0 0 0 0 0 0 0 0 0 0 0 -0 -0 -0
0 0 0 0 0 0 0 0 0 0 0 0 -0 -0 -0 0 0 0 0 0 0 0 0 0 0 0 0 0 -0 -0 0 0 0 0 0 0 0 0 0 0 0 0 0 0 0 0 -0 0 0 0 -0 -0 0 0
0 0 0 0 0 0 0 0 0 0 0 0 0 0 0 0 0 0 0 0 0 0 0 0 0 0 0 0 0 0 0 0 0 0 0 0 0 0 0 0 0 0 0 0 0 -0 -0 -0 -0 -0 0 0 0 0
0 0 0 0 0 0 0 0 0 0 0 0 0 -0 0 0 0 0 0 0 0 0 0 0 0 0 0 0 0 0 0 0 0 0 0 0 0 0 0 0 0 0 0 -0 -0 -0 -0 -0 -0 -0 -0 0 -0 -0
0 0 0 0 0 0 0 0 0 0 0 0 0 0 0 0 0 0 0 0 0 0 0 0 0 0 0 0 0 0 0 0 0 0 0 0 0 0 0 0 0 0 -0 -0 -0 -0 0 -0 0 0 0 0 0 0
0 0 0 0 0 0 0 0 0 0 0 -0 -0 -0 0 0 0 0 0 0 0 0 0 0 0 0 0 0 0 0 0 0 0 0 0 0 0 0 0 0 -0 -0 -0 -0 -0 -0 -0 0 0 0 0 0 0 0
0 0 0 0 0 0 0 0 0 0 0 0 0 0 0 0 0 0 0 0 0 0 0 0 0 0 0 0 0 0 0 0 0 0 0 0 0 0 0 0 0 0 0 0 0 0 0 0 0 0 0 0 0 0
0 0 0 0 0 0 0 0 0 0 0 0 0 0 0 0 0 0 0 0 0 0 0 0 0 0 0 0 0 0 0 0 0 0 0 0 0 0 -0 -0 -0 0 0 0 0 0 0 0 0 0 0 0 0 0
0 0 0 0 0 -0 -0 -0 -0 0 0 -0 0 0 0 0 0 0 -0 0 0 0 0 0 0 0 0 0 0 0 0 0 0 0 0 0 0 -0 -0 -0 -0 0 0 0 0 0 0 0 0 0 0 0 0 0
0 0 0 0 -0 -0 -0 0 0 0 0 0 0 0 0 0 0 0 0 0 -0 0 0 -0 0 0 0 0 -0 0 0 0 0 0 0 0 0 0 0 0 0 0 0 0 0 0 0 0 0 0 0 0 0 0
0 -0 -0 0 0 0 0 0 0 0 0 -0 0 -0 -0 0 0 0 0 0 -0 -0 -0 -0 0 0 -0 -0 -0 -0 -0 0 -0 -0 0 0 0 0 0 0 0 0 0 0 0 0 0 0 0 0 0 0 0 0
0 0 -0 0 0 0 0 0 0 0 0 0 0 0 0 0 0 -0 -0 0 0 0 0 0 0 -0 -0 -0 -0 0 0 0 0 0 0 0 0 0 -0 0 0 0 0 0 0 0 0 0 0 0 0 0 0 0
0 0 0 0 0 0 0 0 0 0 0 0 0 0 0 0 0 0 0 -0 -0 0 0 0 0 0 0 0 0 0 0 0 0 0 0 0 0 0 0 0 0 0 0 0 0 0 0 0 0 0 0 0 0 0
0 0 0 0 0 0 0 0 0 0 0 0 0 -0 -0 0 0 0 0 0 0 0 0 0 0 0 0 0 0 0 -0 0 0 0 0 0 0 0 0 0 0 0 0 0 0 0 0 0 0 0 0 0 0 0
0 0 0 0 0 0 0 0 0 0 0 0 0 0 0 0 0 0 0 0 0 0 0 0 0 0 0 0 0 0 0 0 0 0 0 0 -0 -0 0 0 -0 -0 0 0 0 0 0 0 0 0 0 0 0 0
0 0 0 0 0 0 0 0 0 0 0 0 0 0 0 0 0 0 0 0 0 0 0 0 0 0 0 0 0 0 0 0 0 0 0 0 0 0 -0 -0 0 0 0 0 0 0 -0 0 0 0 0 0 0 0
0 0 0 0 0 0 0 0 0 0 0 0 0 0 0 0 0 0 0 0 0 0 0 0 0 0 0 0 0 0 0 0 0 0 0 0 0 0 0 0 0 0 0 0 0 0 0 -0 0 0 0 0 0 0
Wind_Speed_500mb
63 63 62 58 54 52 52 51 44 42 37 37 37 39 42 41 33 26 34 5 23 28 75 43 24 46 65 52 10 30 19 9 9 13 10 8 7 9 11 9 11 7 11 6 4 6 8 6 20 8 28 60 62 62
65 63 59 54 46 49 48 49 42 45 36 34 35 40 42 40 34 24 35 25 29 39 64 88 53 30 44 51 47 15 15 11 5 5 5 6 6 8 13 10 14 7 12 7 11 5 14 43 45 65 75 82 70 74
64 61 56 47 42 46 50 41 44 39 36 32 34 40 44 40 34 28 36 33 31 32 58 14 26 35 40 32 25 12 3 8 8 5 2 3 7 6 8 8 11 19 25 8 11 21 36 58 69 73 78 73 75 80
59 58 54 48 39 44 46 44 39 36 33 30 33 39 41 39 34 34 38 31 17 20 11 24 43 29 22 23 18 33 44 18 8 9 4 3 5 7 5 6 7 8 22 19 10 20 47 48 69 81 81 86 88 82
58 57 54 45 39 42 43 36 36 35 28 30 34 39 40 37 33 36 27 0 6 14 10 34 52 19 28 15 5 15 11 10 5 5 3 4 6 5 4 3 6 21 12 8 8 23 41 31 57 83 83 81 93 100
58 55 50 37 38 38 38 38 36 28 28 33 35 38 36 33 30 25 8 6 7 22 13 9 27 16 23 10 11 35 15 3 1 4 4 5 4 4 3 4 14 32 33 17 13 58 68 60 56 70 96 84 89 90
54 46 37 33 39 37 34 38 31 26 30 33 37 38 33 27 23 13 9 4 8 11 8 12 13 17 22 5 14 23 11 6 4 1 3 6 6 9 5 5 18 25 35 31 41 53 47 50 60 72 97 90 92 86
47 36 32 33 32 38 35 30 27 28 30 33 35 33 27 22 15 9 9 11 12 16 9 5 9 14 14 12 8 21 11 7 12 10 9 7 8 12 5 5 15 27 45 53 55 64 73 75 79 78 93 85 73 67
38 33 34 37 30 30 26 23 27 28 29 25 24 25 13 3 3 8 13 10 14 13 9 8 6 7 18 15 7 14 9 4 9 3 7 7 7 7 8 11 4 7 23 44 66 69 68 69 62 58 58 59 62 64
33 30 34 28 27 22 19 22 26 27 19 13 19 4 4 4 12 21 6 5 10 11 11 9 11 6 12 17 6 8 4 4 5 5 7 6 4 15 15 20 35 39 42 56 70 48 53 61 61 52 53 55 60 64
29 30 27 25 20 17 18 21 24 23 6 8 8 7 9 9 7 6 7 13 14 8 14 17 22 11 18 3 5 1 3 0 5 6 3 4 4 6 26 32 37 33 36 55 62 61 55 52 51 59 58 59 58 59
28 26 20 19 15 15 18 20 19 15 11 11 15 14 10 3 7 6 7 8 7 4 3 14 17 13 13 8 6 2 0 3 5 7 6 5 4 4 17 35 49 62 62 59 57 46 49 56 57 59 58 59 57 56
25 20 17 14 14 14 16 17 15 12 5 6 5 5 5 6 3 8 6 5 4 7 14 23 10 17 7 3 7 3 2 4 7 6 5 6 8 15 36 41 36 42 37 32 32 41 50 51 51 56 60 57 53 50
22 18 14 14 13 14 17 13 9 4 5 1 3 6 7 8 9 3 8 5 7 19 23 27 15 5 8 3 6 3 4 5 6 5 5 1 19 26 35 44 52 49 41 41 42 46 47 51 52 53 57 57 55 53
15 14 13 12 14 14 10 8 6 3 4 5 7 7 9 8 10 17 15 11 11 16 21 23 19 8 6 4 5 6 3 6 5 7 6 14 27 30 37 40 45 47 45 43 42 42 43 42 46 48 50 50 49 49
14 12 9 5 10 8 7 7 5 6 3 7 13 10 22 11 14 12 13 11 10 18 23 12 6 5 4 5 4 8 4 4 5 6 32 23 28 37 41 42 42 42 47 49 48 44 44 44 47 48 46 43 41 41
14 8 10 10 11 4 4 8 6 7 7 10 15 33 37 25 5 15 12 10 10 12 4 6 6 4 7 5 6 7 4 5 16 34 37 32 29 16 32 42 47 46 46 45 46 44 41 42 42 43 43 40 38 37
16 15 17 14 6 3 4 8 7 9 13 20 17 26 26 12 12 15 7 16 11 3 7 4 7 5 5 5 3 6 11 28 40 40 35 21 27 33 35 41 43 46 45 47 45 41 43 42 40 39 38 38 39 37
23 19 13 13 8 8 7 9 10 9 15 23 29 31 23 12 14 16 6 6 2 4 11 7 6 4 4 7 14 21 26 33 50 48 32 31 31 36 35 38 37 40 42 42 39 41 37 35 30 33 32 32 31 28
27 25 19 9 19 9 7 9 12 11 11 13 30 26 23 9 13 9 5 1 3 1 3 4 4 10 9 10 16 19 25 39 52 47 39 35 33 36 33 44 44 42 36 33 36 32 35 32 28 25 38 33 31 30
11 5 5 14 14 9 8 8 10 11 16 16 30 28 14 14 21 13 7 3 3 5 3 3 6 2 3 5 15 9 27 42 51 54 53 45 40 40 39 43 44 35 36 37 33 34 39 29 33 29 35 32 24 27
12 12 12 13 7 8 11 15 12 12 10 22 33 23 20 10 14 8 9 3 3 5 3 1 3 1 3 9 18 8 18 36 45 37 48 55 44 42 38 43 44 40 32 36 27 29 30 31 38 24 28 33 29 33
16 16 9 11 7 7 15 13 9 10 6 7 18 10 8 7 7 13 4 3 2 7 9 6 3 5 4 10 17 13 23 36 37 30 41 49 43 40 45 43 34 15 32 32 28 27 25 34 31 27 29 30 31 25
15 8 8 8 15 9 10 12 14 9 10 13 6 11 4 9 15 6 2 2 2 5 8 8 6 8 8 20 19 15 24 33 36 36 49 39 36 47 46 43 27 18 28 26 27 27 29 32 28 30 34 30 27 17
9 9 7 8 9 10 8 9 19 10 7 15 18 3 5 1 5 6 5 3 4 6 5 13 11 8 10 26 21 20 13 49 42 30 45 33 40 45 37 30 26 33 27 30 30 33 35 29 35 33 29 34 28 18
7 10 12 10 9 10 6 6 5 9 6 3 6 9 6 4 3 3 5 7 2 5 4 5 7 6 17 21 28 25 26 38 30 39 26 30 30 39 40 34 29 26 25 29 30 34 28 32 33 34 28 33 38 29
7 10 16 16 15 12 12 10 13 8 4 6 4 6 6 1 5 5 15 9 3 15 20 17 17 20 31 21 37 36 38 39 33 34 26 29 34 33 25 30 32 32 25 22 25 28 27 27 32 35 35 34 26 31
10 8 10 18 20 8 4 8 5 3 1 2 11 3 6 3 4 13 20 22 25 23 21 20 18 22 22 21 21 17 15 11 10 8 5 29 32 23 25 31 29 26 25 26 26 28 33 34 34 28 25 26 19 28
10 13 14 15 9 7 8 6 3 4 8 4 5 4 7 13 31 25 17 11 15 17 17 18 17 13 16 14 18 16 15 16 17 22 12 25 23 25 24 27 26 27 26 25 29 20 27 36 30 34 27 27 30 32
15 16 8 9 10 4 4 4 11 15 18 20 30 44 38 32 24 17 16 24 18 12 13 14 18 16 13 8 10 11 6 16 9 13 35 24 22 17 25 25 18 21 30 25 30 33 30 25 20 22 28 27 26 25
6 15 9 10 7 2 9 7 11 14 18 18 21 34 25 22 20 15 12 9 11 8 12 6 2 6 6 6 7 6 8 9 16 15 15 17 35 24 27 26 24 21 31 29 24 26 25 29 27 25 24 24 26 27
14 16 12 9 9 4 6 6 7 10 20 19 24 30 21 10 7 7 8 2 7 15 12 10 10 9 8 4 7 13 19 16 18 21 18 16 22 25 33 26 30 26 29 28 26 26 27 27 24 15 17 22 25 27
20 19 15 11 7 8 11 10 9 11 12 14 20 20 13 8 7 8 15 10 9 6 12 13 6 10 16 17 17 15 12 14 21 26 18 11 22 28 29 27 33 34 22 22 23 24 22 25 25 24 27 32 33 31
Wind_Direction_500mb
313 312 311 310 312 316 317 316 316 319 316 316 323 325 330 335 332 325 321 4 305 287 290 291 286 298 292 290 263 292 330 24 9 19 1 340 318 344 319 290 342 341 328 31 322 68 151 204 219 304 126 121 113 109
313 313 313 309 312 312 313 311 314 317 309 314 320 323 328 330 326 321 307 320 300 281 274 299 297 299 286 290 258 271 282 346 355 350 10 309 316 315 313 327 344 18 3 310 14 359 45 67 91 116 123 119 119 114
313 313 310 305 305 306 306 307 307 310 307 312 319 323 326 328 323 314 303 316 321 295 310 285 308 326 292 316 294 261 329 249 215 209 217 282 281 322 339 356 300 342 8 13 350 13 88 84 88 96 106 111 114 114
313 313 310 306 301 305 305 302 304 300 304 310 318 321 322 325 320 311 303 309 275 281 288 292 318 311 6 350 300 270 263 247 218 183 206 270 282 346 337 312 342 326 314 318 2 24 76 82 105 111 111 117 109 105
312 311 309 303 299 299 298 299 299 300 306 311 316 319 321 321 316 314 323 116 270 257 290 300 329 2 359 349 311 67 352 263 163 168 189 234 240 306 297 11 8 339 340 358 9 9 84 90 112 121 116 115 123 125
311 309 307 301 301 296 298 292 294 301 308 310 313 315 315 314 317 334 350 358 339 264 301 306 305 312 355 305 41 15 23 96 222 202 257 300 267 291 347 60 341 355 358 46 79 81 89 97 99 113 117 117 121 119
311 305 305 297 296 299 296 296 296 304 309 311 313 310 309 303 294 257 236 228 339 303 272 293 285 287 322 19 42 13 54 65 28 1 295 288 352 2 32 42 353 27 47 81 102 98 85 96 101 110 117 114 115 116
307 302 296 296 297 292 292 295 300 309 311 314 310 307 306 299 294 288 340 256 265 267 255 274 278 284 336 2 63 15 7 27 26 11 348 359 29 14 66 38 79 70 77 77 91 101 108 112 114 113 114 113 112 116
304 295 293 291 286 288 291 296 305 312 320 317 310 311 298 150 258 278 300 273 216 244 283 228 274 293 333 358 67 18 10 12 12 48 11 31 18 34 304 164 26 1 109 101 99 103 104 102 109 117 118 119 117 115
293 293 292 289 286 287 290 304 312 322 331 326 326 350 196 46 310 298 288 182 210 207 227 260 250 243 276 334 87 347 317 29 30 18 71 45 50 5 69 119 117 109 106 111 108 108 120 117 116 118 120 118 116 116
284 274 271 278 283 282 298 309 321 337 310 0 309 283 272 269 254 247 256 206 174 213 216 237 246 260 320 8 91 331 311 129 36 341 70 75 42 15 95 108 114 113 112 108 109 111 108 110 114 116 115 116 116 116
280 272 273 279 270 283 300 313 326 327 302 317 309 306 343 283 239 258 245 234 209 306 305 325 353 320 302 137 92 338 35 72 80 319 22 45 87 41 171 130 98 107 109 114 111 110 114 112 115 117 118 119 119 120
273 266 264 256 270 279 297 315 319 328 21 69 343 303 259 259 1 228 259 336 321 273 354 335 330 325 294 90 114 58 23 70 170 49 36 30 124 92 94 143 169 123 111 124 103 101 116 119 120 122 122 120 121 122
260 255 251 251 261 284 301 304 296 337 103 278 274 281 230 209 231 106 218 186 17 357 337 331 311 270 296 328 92 46 21 118 93 72 19 138 125 111 106 118 122 124 133 119 116 119 115 114 116 123 125 127 126 125
241 240 237 261 281 290 285 270 280 223 144 256 232 245 243 297 292 337 9 360 350 329 331 326 313 250 244 269 117 130 26 76 56 121 154 163 146 135 132 138 138 138 137 130 126 122 123 122 122 119 120 120 125 129
218 232 255 247 306 277 249 257 211 147 226 243 233 255 274 296 325 327 336 305 321 329 330 276 274 309 303 348 327 50 89 67 160 154 160 143 143 151 159 156 151 142 136 133 131 129 128 127 126 124 125 125 125 120
203 216 249 276 313 294 238 149 172 220 236 231 237 237 246 277 268 295 269 323 357 349 309 315 320 331 290 347 53 31 52 128 155 148 149 139 143 126 153 149 141 138 136 133 132 132 129 127 125 125 125 126 127 126
209 211 239 279 282 297 121 181 230 241 242 244 258 267 258 217 265 283 302 322 332 288 287 334 303 288 24 21 45 125 114 155 160 152 153 167 164 151 140 126 132 137 138 139 136 134 134 133 131 131 132 133 132 133
194 217 249 275 192 178 193 220 228 264 253 262 262 272 267 221 242 256 286 293 285 281 300 306 264 57 60 62 115 123 154 162 166 169 172 160 157 146 145 147 146 142 144 142 141 147 147 146 140 144 146 142 142 145
230 249 264 205 173 180 232 242 211 253 269 285 301 272 236 211 219 192 181 137 317 309 294 326 51 63 98 105 132 145 171 172 171 177 177 160 151 156 150 148 148 153 153 155 155 160 163 158 152 145 153 156 150 156
157 158 213 173 177 225 256 273 239 249 282 277 285 304 312 231 182 175 154 164 249 257 113 98 95 101 140 142 155 160 167 168 178 187 189 182 163 167 158 153 155 155 159 168 174 174 174 175 178 168 172 166 153 159
156 164 156 183 232 222 252 243 244 289 269 272 295 293 262 239 137 128 139 148 349 295 278 167 128 196 168 188 168 184 181 179 181 184 190 186 176 167 167 170 166 172 172 178 178 176 177 172 170 160 167 166 165 168
162 182 216 212 236 239 262 234 237 239 252 268 236 247 265 89 112 137 70 171 305 247 238 182 180 211 141 166 180 156 166 174 170 168 183 179 187 185 179 179 188 188 175 177 181 177 170 167 164 163 175 165 174 171
184 215 230 218 206 253 247 208 220 244 243 248 259 256 100 116 150 27 132 201 244 183 202 181 199 225 179 171 163 161 159 186 169 160 170 178 174 171 183 186 182 186 181 183 181 181 188 177 174 178 168 181 187 211
207 229 215 258 241 250 250 221 219 230 242 244 217 165 41 81 132 152 208 240 195 217 214 213 275 200 188 180 171 181 220 182 187 168 171 169 173 171 182 188 191 187 187 190 181 190 180 180 178 183 181 192 206 215
205 221 197 218 234 231 244 278 225 230 221 275 91 115 77 60 98 163 110 150 29 122 154 186 133 149 158 179 183 168 157 156 164 168 147 166 166 175 178 185 174 181 190 192 194 192 193 192 192 197 201 203 212 211
235 238 215 239 261 279 291 282 256 262 265 101 220 140 132 354 117 79 128 122 54 119 105 92 104 91 158 132 125 120 138 141 134 144 139 159 177 184 191 191 193 184 182 187 195 190 189 205 206 204 210 212 201 201
252 279 230 235 238 262 275 279 262 271 76 151 108 57 91 21 90 135 122 98 113 96 96 100 92 105 110 113 138 161 198 163 162 172 178 192 202 197 187 196 217 213 211 214 214 212 209 214 201 212 212 198 229 215
241 245 243 250 236 246 245 249 305 61 19 62 96 78 82 102 125 125 129 121 118 117 101 98 105 104 117 139 146 174 196 172 201 209 175 165 180 184 185 200 203 195 202 218 204 194 201 212 217 208 227 226 216 221
237 206 243 238 239 259 242 87 98 73 68 96 113 111 107 100 98 101 94 107 129 121 117 99 91 92 105 131 135 117 122 205 207 217 204 201 178 190 195 190 201 197 204 197 200 204 204 201 211 223 209 224 224 219
207 195 227 256 290 116 139 157 121 108 98 125 133 126 124 113 98 79 86 100 125 116 130 94 123 114 143 197 195 214 178 176 183 187 191 196 189 200 198 207 200 201 195 199 203 205 210 206 215 221 227 229 225 233
205 207 221 219 223 225 186 146 159 147 142 132 129 127 126 125 97 74 57 331 121 91 95 103 104 104 119 78 253 244 231 221 195 200 202 231 229 215 196 196 209 195 192 193 210 207 224 224 224 238 226 226 232 230
210 224 236 256 200 207 213 191 203 164 145 150 144 148 132 120 119 127 102 104 95 137 133 129 184 246 284 265 238 259 227 211 197 192 205 186 175 184 196 203 199 191 198 183 214 223 221 209 215 228 230 229 237 239
Wind_Speed_850mb
63 63 62 58 54 52 52 51 44 42 37 37 37 39 42 41 33 26 34 5 23 28 75 43 24 46 65 52 10 30 19 9 9 13 10 8 7 9 11 9 11 7 11 6 4 6 8 6 20 8 28 60 62 62
65 63 59 54 46 49 48 49 42 45 36 34 35 40 42 40 34 24 35 25 29 39 64 88 53 30 44 51 47 15 15 11 5 5 5 6 6 8 13 10 14 7 12 7 11 5 14 43 45 65 75 82 70 74
64 61 56 47 42 46 50 41 44 39 36 32 34 40 44 40 34 28 36 33 31 32 58 14 26 35 40 32 25 12 3 8 8 5 2 3 7 6 8 8 11 19 25 8 11 21 36 58 69 73 78 73 75 80
59 58 54 48 39 44 46 44 39 36 33 30 33 39 41 39 34 34 38 31 17 20 11 24 43 29 22 23 18 33 44 18 8 9 4 3 5 7 5 6 7 8 22 19 10 20 47 48 69 81 81 86 88 82
58 57 54 45 39 42 43 36 36 35 28 30 34 39 40 37 33 36 27 0 6 14 10 34 52 19 28 15 5 15 11 10 5 5 3 4 6 5 4 3 6 21 12 8 8 23 41 31 57 83 83 81 93 100
58 55 50 37 38 38 38 38 36 28 28 33 35 38 36 33 30 25 8 6 7 22 13 9 27 16 23 10 11 35 15 3 1 4 4 5 4 4 3 4 14 32 33 17 13 58 68 60 56 70 96 84 89 90
54 46 37 33 39 37 34 38 31 26 30 33 37 38 33 27 23 13 9 4 8 11 8 12 13 17 22 5 14 23 11 6 4 1 3 6 6 9 5 5 18 25 35 31 41 53 47 50 60 72 97 90 92 86
47 36 32 33 32 38 35 30 27 28 30 33 35 33 27 22 15 9 9 11 12 16 9 5 9 14 14 12 8 21 11 7 12 10 9 7 8 12 5 5 15 27 45 53 55 64 73 75 79 78 93 85 73 67
38 33 34 37 30 30 26 23 27 28 29 25 24 25 13 3 3 8 13 10 14 13 9 8 6 7 18 15 7 14 9 4 9 3 7 7 7 7 8 11 4 7 23 44 66 69 68 69 62 58 58 59 62 64
33 30 34 28 27 22 19 22 26 27 19 13 19 4 4 4 12 21 6 5 10 11 11 9 11 6 12 17 6 8 4 4 5 5 7 6 4 15 15 20 35 39 42 56 70 48 53 61 61 52 53 55 60 64
29 30 27 25 20 17 18 21 24 23 6 8 8 7 9 9 7 6 7 13 14 8 14 17 22 11 18 3 5 1 3 0 5 6 3 4 4 6 26 32 37 33 36 55 62 61 55 52 51 59 58 59 58 59
28 26 20 19 15 15 18 20 19 15 11 11 15 14 10 3 7 6 7 8 7 4 3 14 17 13 13 8 6 2 0 3 5 7 6 5 4 4 17 35 49 62 62 59 57 46 49 56 57 59 58 59 57 56
25 20 17 14 14 14 16 17 15 12 5 6 5 5 5 6 3 8 6 5 4 7 14 23 10 17 7 3 7 3 2 4 7 6 5 6 8 15 36 41 36 42 37 32 32 41 50 51 51 56 60 57 53 50
22 18 14 14 13 14 17 13 9 4 5 1 3 6 7 8 9 3 8 5 7 19 23 27 15 5 8 3 6 3 4 5 6 5 5 1 19 26 35 44 52 49 41 41 42 46 47 51 52 53 57 57 55 53
15 14 13 12 14 14 10 8 6 3 4 5 7 7 9 8 10 17 15 11 11 16 21 23 19 8 6 4 5 6 3 6 5 7 6 14 27 30 37 40 45 47 45 43 42 42 43 42 46 48 50 50 49 49
14 12 9 5 10 8 7 7 5 6 3 7 13 10 22 11 14 12 13 11 10 18 23 12 6 5 4 5 4 8 4 4 5 6 32 23 28 37 41 42 42 42 47 49 48 44 44 44 47 48 46 43 41 41
14 8 10 10 11 4 4 8 6 7 7 10 15 33 37 25 5 15 12 10 10 12 4 6 6 4 7 5 6 7 4 5 16 34 37 32 29 16 32 42 47 46 46 45 46 44 41 42 42 43 43 40 38 37
16 15 17 14 6 3 4 8 7 9 13 20 17 26 26 12 12 15 7 16 11 3 7 4 7 5 5 5 3 6 11 28 40 40 35 21 27 33 35 41 43 46 45 47 45 41 43 42 40 39 38 38 39 37
23 19 13 13 8 8 7 9 10 9 15 23 29 31 23 12 14 16 6 6 2 4 11 7 6 4 4 7 14 21 26 33 50 48 32 31 31 36 35 38 37 40 42 42 39 41 37 35 30 33 32 32 31 28
27 25 19 9 19 9 7 9 12 11 11 13 30 26 23 9 13 9 5 1 3 1 3 4 4 10 9 10 16 19 25 39 52 47 39 35 33 36 33 44 44 42 36 33 36 32 35 32 28 25 38 33 31 30
11 5 5 14 14 9 8 8 10 11 16 16 30 28 14 14 21 13 7 3 3 5 3 3 6 2 3 5 15 9 27 42 51 54 53 45 40 40 39 43 44 35 36 37 33 34 39 29 33 29 35 32 24 27
12 12 12 13 7 8 11 15 12 12 10 22 33 23 20 10 14 8 9 3 3 5 3 1 3 1 3 9 18 8 18 36 45 37 48 55 44 42 38 43 44 40 32 36 27 29 30 31 38 24 28 33 29 33
16 16 9 11 7 7 15 13 9 10 6 7 18 10 8 7 7 13 4 3 2 7 9 6 3 5 4 10 17 13 23 36 37 30 41 49 43 40 45 43 34 15 32 32 28 27 25 34 31 27 29 30 31 25
15 8 8 8 15 9 10 12 14 9 10 13 6 11 4 9 15 6 2 2 2 5 8 8 6 8 8 20 19 15 24 33 36 36 49 39 36 47 46 43 27 18 28 26 27 27 29 32 28 30 34 30 27 17
9 9 7 8 9 10 8 9 19 10 7 15 18 3 5 1 5 6 5 3 4 6 5 13 11 8 10 26 21 20 13 49 42 30 45 33 40 45 37 30 26 33 27 30 30 33 35 29 35 33 29 34 28 18
7 10 12 10 9 10 6 6 5 9 6 3 6 9 6 4 3 3 5 7 2 5 4 5 7 6 17 21 28 25 26 38 30 39 26 30 30 39 40 34 29 26 25 29 30 34 28 32 33 34 28 33 38 29
7 10 16 16 15 12 12 10 13 8 4 6 4 6 6 1 5 5 15 9 3 15 20 17 17 20 31 21 37 36 38 39 33 34 26 29 34 33 25 30 32 32 25 22 25 28 27 27 32 35 35 34 26 31
10 8 10 18 20 8 4 8 5 3 1 2 11 3 6 3 4 13 20 22 25 23 21 20 18 22 22 21 21 17 15 11 10 8 5 29 32 23 25 31 29 26 25 26 26 28 33 34 34 28 25 26 19 28
10 13 14 15 9 7 8 6 3 4 8 4 5 4 7 13 31 25 17 11 15 17 17 18 17 13 16 14 18 16 15 16 17 22 12 25 23 25 24 27 26 27 26 25 29 20 27 36 30 34 27 27 30 32
15 16 8 9 10 4 4 4 11 15 18 20 30 44 38 32 24 17 16 24 18 12 13 14 18 16 13 8 10 11 6 16 9 13 35 24 22 17 25 25 18 21 30 25 30 33 30 25 20 22 28 27 26 25
6 15 9 10 7 2 9 7 11 14 18 18 21 34 25 22 20 15 12 9 11 8 12 6 2 6 6 6 7 6 8 9 16 15 15 17 35 24 27 26 24 21 31 29 24 26 25 29 27 25 24 24 26 27
14 16 12 9 9 4 6 6 7 10 20 19 24 30 21 10 7 7 8 2 7 15 12 10 10 9 8 4 7 13 19 16 18 21 18 16 22 25 33 26 30 26 29 28 26 26 27 27 24 15 17 22 25 27
20 19 15 11 7 8 11 10 9 11 12 14 20 20 13 8 7 8 15 10 9 6 12 13 6 10 16 17 17 15 12 14 21 26 18 11 22 28 29 27 33 34 22 22 23 24 22 25 25 24 27 32 33 31
Wind_Direction_850mb
313 312 311 310 312 316 317 316 316 319 316 316 323 325 330 335 332 325 321 4 305 287 290 291 286 298 292 290 263 292 330 24 9 19 1 340 318 344 319 290 342 341 328 31 322 68 151 204 219 304 126 121 113 109
313 313 313 309 312 312 313 311 314 317 309 314 320 323 328 330 326 321 307 320 300 281 274 299 297 299 286 290 258 271 282 346 355 350 10 309 316 315 313 327 344 18 3 310 14 359 45 67 91 116 123 119 119 114
313 313 310 305 305 306 306 307 307 310 307 312 319 323 326 328 323 314 303 316 321 295 310 285 308 326 292 316 294 261 329 249 215 209 217 282 281 322 339 356 300 342 8 13 350 13 88 84 88 96 106 111 114 114
313 313 310 306 301 305 305 302 304 300 304 310 318 321 322 325 320 311 303 309 275 281 288 292 318 311 6 350 300 270 263 247 218 183 206 270 282 346 337 312 342 326 314 318 2 24 76 82 105 111 111 117 109 105
312 311 309 303 299 299 298 299 299 300 306 311 316 319 321 321 316 314 323 116 270 257 290 300 329 2 359 349 311 67 352 263 163 168 189 234 240 306 297 11 8 339 340 358 9 9 84 90 112 121 116 115 123 125
311 309 307 301 301 296 298 292 294 301 308 310 313 315 315 314 317 334 350 358 339 264 301 306 305 312 355 305 41 15 23 96 222 202 257 300 267 291 347 60 341 355 358 46 79 81 89 97 99 113 117 117 121 119
311 305 305 297 296 299 296 296 296 304 309 311 313 310 309 303 294 257 236 228 339 303 272 293 285 287 322 19 42 13 54 65 28 1 295 288 352 2 32 42 353 27 47 81 102 98 85 96 101 110 117 114 115 116
307 302 296 296 297 292 292 295 300 309 311 314 310 307 306 299 294 288 340 256 265 267 255 274 278 284 336 2 63 15 7 27 26 11 348 359 29 14 66 38 79 70 77 77 91 101 108 112 114 113 114 113 112 116
304 295 293 291 286 288 291 296 305 312 320 317 310 311 298 150 258 278 300 273 216 244 283 228 274 293 333 358 67 18 10 12 12 48 11 31 18 34 304 164 26 1 109 101 99 103 104 102 109 117 118 119 117 115
293 293 292 289 286 287 290 304 312 322 331 326 326 350 196 46 310 298 288 182 210 207 227 260 250 243 276 334 87 347 317 29 30 18 71 45 50 5 69 119 117 109 106 111 108 108 120 117 116 118 120 118 116 116
284 274 271 278 283 282 298 309 321 337 310 0 309 283 272 269 254 247 256 206 174 213 216 237 246 260 320 8 91 331 311 129 36 341 70 75 42 15 95 108 114 113 112 108 109 111 108 110 114 116 115 116 116 116
280 272 273 279 270 283 300 313 326 327 302 317 309 306 343 283 239 258 245 234 209 306 305 325 353 320 302 137 92 338 35 72 80 319 22 45 87 41 171 130 98 107 109 114 111 110 114 112 115 117 118 119 119 120
273 266 264 256 270 279 297 315 319 328 21 69 343 303 259 259 1 228 259 336 321 273 354 335 330 325 294 90 114 58 23 70 170 49 36 30 124 92 94 143 169 123 111 124 103 101 116 119 120 122 122 120 121 122
260 255 251 251 261 284 301 304 296 337 103 278 274 281 230 209 231 106 218 186 17 357 337 331 311 270 296 328 92 46 21 118 93 72 19 138 125 111 106 118 122 124 133 119 116 119 115 114 116 123 125 127 126 125
241 240 237 261 281 290 285 270 280 223 144 256 232 245 243 297 292 337 9 360 350 329 331 326 313 250 244 269 117 130 26 76 56 121 154 163 146 135 132 138 138 138 137 130 126 122 123 122 122 119 120 120 125 129
218 232 255 247 306 277 249 257 211 147 226 243 233 255 274 296 325 327 336 305 321 329 330 276 274 309 303 348 327 50 89 67 160 154 160 143 143 151 159 156 151 142 136 133 131 129 128 127 126 124 125 125 125 120
203 216 249 276 313 294 238 149 172 220 236 231 237 237 246 277 268 295 269 323 357 349 309 315 320 331 290 347 53 31 52 128 155 148 149 139 143 126 153 149 141 138 136 133 132 132 129 127 125 125 125 126 127 126
209 211 239 279 282 297 121 181 230 241 242 244 258 267 258 217 265 283 302 322 332 288 287 334 303 288 24 21 45 125 114 155 160 152 153 167 164 151 140 126 132 137 138 139 136 134 134 133 131 131 132 133 132 133
194 217 249 275 192 178 193 220 228 264 253 262 262 272 267 221 242 256 286 293 285 281 300 306 264 57 60 62 115 123 154 162 166 169 172 160 157 146 145 147 146 142 144 142 141 147 147 146 140 144 146 142 142 145
230 249 264 205 173 180 232 242 211 253 269 285 301 272 236 211 219 192 181 137 317 309 294 326 51 63 98 105 132 145 171 172 171 177 177 160 151 156 150 148 148 153 153 155 155 160 163 158 152 145 153 156 150 156
157 158 213 173 177 225 256 273 239 249 282 277 285 304 312 231 182 175 154 164 249 257 113 98 95 101 140 142 155 160 167 168 178 187 189 182 163 167 158 153 155 155 159 168 174 174 174 175 178 168 172 166 153 159
156 164 156 183 232 222 252 243 244 289 269 272 295 293 262 239 137 128 139 148 349 295 278 167 128 196 168 188 168 184 181 179 181 184 190 186 176 167 167 170 166 172 172 178 178 176 177 172 170 160 167 166 165 168
162 182 216 212 236 239 262 234 237 239 252 268 236 247 265 89 112 137 70 171 305 247 238 182 180 211 141 166 180 156 166 174 170 168 183 179 187 185 179 179 188 188 175 177 181 177 170 167 164 163 175 165 174 171
184 215 230 218 206 253 247 208 220 244 243 248 259 256 100 116 150 27 132 201 244 183 202 181 199 225 179 171 163 161 159 186 169 160 170 178 174 171 183 186 182 186 181 183 181 181 188 177 174 178 168 181 187 211
207 229 215 258 241 250 250 221 219 230 242 244 217 165 41 81 132 152 208 240 195 217 214 213 275 200 188 180 171 181 220 182 187 168 171 169 173 171 182 188 191 187 187 190 181 190 180 180 178 183 181 192 206 215
205 221 197 218 234 231 244 278 225 230 221 275 91 115 77 60 98 163 110 150 29 122 154 186 133 149 158 179 183 168 157 156 164 168 147 166 166 175 178 185 174 181 190 192 194 192 193 192 192 197 201 203 212 211
235 238 215 239 261 279 291 282 256 262 265 101 220 140 132 354 117 79 128 122 54 119 105 92 104 91 158 132 125 120 138 141 134 144 139 159 177 184 191 191 193 184 182 187 195 190 189 205 206 204 210 212 201 201
252 279 230 235 238 262 275 279 262 271 76 151 108 57 91 21 90 135 122 98 113 96 96 100 92 105 110 113 138 161 198 163 162 172 178 192 202 197 187 196 217 213 211 214 214 212 209 214 201 212 212 198 229 215
241 245 243 250 236 246 245 249 305 61 19 62 96 78 82 102 125 125 129 121 118 117 101 98 105 104 117 139 146 174 196 172 201 209 175 165 180 184 185 200 203 195 202 218 204 194 201 212 217 208 227 226 216 221
237 206 243 238 239 259 242 87 98 73 68 96 113 111 107 100 98 101 94 107 129 121 117 99 91 92 105 131 135 117 122 205 207 217 204 201 178 190 195 190 201 197 204 197 200 204 204 201 211 223 209 224 224 219
207 195 227 256 290 116 139 157 121 108 98 125 133 126 124 113 98 79 86 100 125 116 130 94 123 114 143 197 195 214 178 176 183 187 191 196 189 200 198 207 200 201 195 199 203 205 210 206 215 221 227 229 225 233
205 207 221 219 223 225 186 146 159 147 142 132 129 127 126 125 97 74 57 331 121 91 95 103 104 104 119 78 253 244 231 221 195 200 202 231 229 215 196 196 209 195 192 193 210 207 224 224 224 238 226 226 232 230
210 224 236 256 200 207 213 191 203 164 145 150 144 148 132 120 119 127 102 104 95 137 133 129 184 246 284 265 238 259 227 211 197 192 205 186 175 184 196 203 199 191 198 183 214 223 221 209 215 228 230 229 237 239